User: anonymous   Login
Location: Caltech
(34.1382°N, 118.1253°W)
Time: 00:08:08
(UTC-08:00)
Language:

Iridium 75 - Orbit

View from above orbital plane
View from above orbital plane
View from above satellite
View from above satellite

Ground track
Ground track

The orbit data is extracted from the following two-line orbital elements,

1 25346U 98032E   16044.58705536  .00000044  00000-0  85797-5 0  9995
2 25346  86.3927  68.7888 0002237  93.5908  17.8044 14.34218161929498
Epoch (UTC): 13 February 2016 14:05:21
Eccentricity: 0.0002237
inclination: 86.3927°
perigee height: 776 km
apogee height: 779 km
right ascension of ascending node: 68.7888°
argument of perigee: 93.5908°
revolutions per day: 14.34218161
mean anomaly at epoch: 17.8044°
orbit number at epoch: 92949

The dashed part of the orbit path shows where the satellite is in the earth's shadow,  

DLR